sat.trackr.live / text

‹ back to catalog

STARLINK-30098

NORAD 56292 · 2023-056G

PAYLOAD ACTIVE UNKNOWN

§ Identity

Operator
Country
US
Launch date
2023-04-19
Launch site
AFETR
Launch vehicle
Mass (kg)
RCS (m²)

Purposes: comms

External: N2YO · Heavens-Above · Gunter

§ Orbital elements

Epoch: 2026-05-25T00:36:38.487744Z

Period
94.27 min
Inclination
43.0022°
Eccentricity
0.0000975
Mean motion
15.27577334 rev/d
Perigee alt
482.4 km
Apogee alt
483.7 km
Semi-major
6,861.2 km
B*
1.6431e-5
RAAN
137.8820°
Arg perigee
280.6337°
Mean anomaly
79.4405°
Rev number
17,171

§ Raw data

STARLINK-300981 56292U 23056G   26145.02544546  .00000190  00000+0  16431-4 0  99962 56292  43.0022 137.8820 0000975 280.6337  79.4405 15.27577334171716

JSON: /api/v1/satellites/56292 · /tle

For live sub-satellite position, see the globe view (requires WebGL).

§ Visibility from observer

Set your observer location to see the next 7 days of passes ≥ 10°. The values pass through the URL so the page stays shareable.

No JS? Fill the form by hand. The geolocation button needs JavaScript.